Location: Sternwarte ZA, Rosenfeld-Brittheim
(48.2889°N, 8.6789°E)
Time: 07:25:17
(UTC+02:00)

ISS - Pass Details

Date: 25 May 2021
Orbit: 417 x 422 km, 51.6° (Epoch: 18 June)

Event Time Altitude Azimuth Distance (km) Brightness Sun altitude
Rises 23:47:53 0° 291° (WNW) 2,370 0.8 -17.4°
Reaches altitude 10° 23:50:01 10° 287° (WNW) 1,504 -0.4 -17.6°
Maximum altitude 23:53:19 52° 210° (SSW) 531 -3.6 -17.8°
Enters shadow 23:53:28 51° 199° (SSW) 534 -3.6 -17.8°
